Flag for U.S.A. Weather past 2 weeks in Salinas, California, U.S.A.

Now
61 °F

Clear.


Feels Like: 61 °F
Forecast: 58 / 67 °F
Wind: 6 mph from Northwest

Location: Salinas Municipal Airport

Current Time: Sep 29, 2014 at 11:55:37 PM

Latest Report: Sep 29, 2014 at 10:53 PM


Visibility: 10 mi

Pressure: 30.02 "Hg

Humidity: 83%

Dew point: 56 °F

Location of SalinasLocation

Historic Weather in Salinas — Graph

°F

Salinas temperature yesterday

Maximum temperature yesterday: 69 °F (at 3:53 PM)
Minimum temperature yesterday: 57 °F (at 8:01 AM)
Average temperature yesterday: 64 °F

Past Weeks' High & Low Weather Summary

 TemperatureHumidityPressure
High79 °F (Sep 16, 1:53 PM)100% (Sep 17, 6:53 AM)30.06 "Hg (Sep 17, 6:53 AM)
Low53 °F (Sep 29, 4:53 AM)40% (Sep 16, 11:53 AM)29.81 "Hg (Sep 17, 4:03 AM)
Average65 °F76%29.95 "Hg
* Reported Sep 14 9:53 PM — Sep 29 9:53 PM, Salinas, Weather by CustomWeather, © 2014

Note: Actual official high and low records may vary slightly from our data, if they occured in-between our weather recording intervals... More about our weather records

Advertising

Salinas weather history for previous 24 hours

 ConditionsComfort  
Time TempWeatherWind HumidityBarometerVisibility
9:53 PM
Sep 29
61 °FClear.7 mph83%30.02 "Hg10 mi
8:53 PM61 °FClear.7 mph83%30.01 "Hg10 mi
7:53 PM62 °FPassing clouds.7 mph80%30.00 "Hg10 mi
6:53 PM63 °FPartly sunny.9 mph81%30.00 "Hg10 mi
5:53 PM65 °FPassing clouds.13 mph76%30.00 "Hg10 mi
4:53 PM67 °FSunny.13 mph71%30.00 "Hg10 mi
3:53 PM69 °FSunny.15 mph63%29.99 "Hg10 mi
2:53 PM69 °FSunny.14 mph66%30.01 "Hg10 mi
1:53 PM69 °FSunny.10 mph66%30.02 "Hg10 mi
12:53 PM69 °FSunny.13 mph66%30.03 "Hg9 mi
11:53 AM70 °FSunny.6 mph64%30.04 "Hg8 mi
10:53 AM66 °FSunny.No wind73%30.06 "Hg7 mi
9:53 AM61 °FScattered clouds.3 mph83%30.05 "Hg6 mi
8:53 AM58 °FFog.No wind93%30.04 "Hg4 mi
7:53 AM53 °FFog.6 mph96%30.03 "Hg5 mi
6:53 AM56 °FFog.No wind97%30.02 "Hg2 mi
5:53 AM53 °FPassing clouds.No wind93%30.00 "Hg8 mi
4:53 AM53 °FClear.No wind93%29.99 "Hg10 mi
3:53 AM57 °FClear.No wind87%29.99 "Hg10 mi
2:53 AM57 °FClear.3 mph87%29.98 "Hg10 mi
1:53 AM59 °FClear.No wind84%29.98 "Hg10 mi
12:53 AM59 °FClear.No wind87%29.98 "Hg9 mi
11:53 PM
Sep 28
59 °FClear.No wind87%29.98 "Hg9 mi
Weather by CustomWeather, © 2014

See weather overviewHow to use our weather pages